Date,TemperatureHighF,TemperatureAvgF,TemperatureLowF,DewpointHighF,DewpointAvgF,DewpointLowF,HumidityHigh,HumidityAvg,HumidityLow,PressureMaxIn,PressureMinIn,WindSpeedMaxMPH,WindSpeedAvgMPH,GustSpeedMaxMPH,PrecipitationSumIn
2013-1-1,44,38,31,22,16,12,67,43,30,0.00,40.00,33,21,66,0.00
2013-1-2,47,39,35,21,15,12,44,37,29,0.00,40.00,33,26,51,0.00
2013-1-3,44,36,32,21,17,15,50,46,34,0.00,40.00,28,22,41,0.00
2013-1-4,48,39,35,26,22,20,57,50,36,0.00,40.00,25,19,40,0.00
2013-1-5,45,40,37,36,27,23,82,61,47,0.00,40.00,15,8,25,0.00
2013-1-6,48,40,35,42,36,30,98,87,62,0.00,40.00,9,4,16,0.07
2013-1-7,51,44,39,32,28,25,72,54,45,0.00,40.00,24,19,45,0.01
2013-1-8,58,49,44,39,35,32,83,59,45,0.00,40.00,24,14,36,0.00
2013-1-9,48,40,32,40,35,30,98,82,59,0.00,40.00,10,5,21,0.57
2013-1-10,39,33,28,32,27,22,98,81,56,0.00,40.00,6,3,11,0.49
2013-1-11,41,32,25,27,23,14,93,73,46,0.00,40.00,19,6,29,0.01
2013-1-12,39,30,26,16,11,6,51,44,27,0.00,40.00,22,16,44,0.01
2013-1-13,39,29,24,10,4,-4,43,35,18,0.00,40.00,29,21,45,0.00
2013-1-14,43,33,26,13,6,2,36,32,25,0.00,40.00,33,22,52,0.00
2013-1-15,57,42,36,23,18,13,44,38,25,0.00,40.00,31,22,51,0.00
2013-1-16,61,51,47,18,16,12,30,25,17,0.00,40.00,35,27,59,0.00
2013-1-17,59,49,45,14,11,10,24,22,16,0.00,40.00,33,29,67,0.00
2013-1-18,56,45,40,14,13,12,32,27,19,0.00,40.00,31,25,48,0.00
2013-1-19,56,44,40,15,13,12,32,27,18,0.00,40.00,31,26,53,0.00
2013-1-20,58,44,39,14,13,12,35,30,16,0.00,40.00,36,27,63,0.00
2013-1-21,61,47,43,28,15,12,34,28,18,0.00,40.00,30,23,48,0.00
2013-1-22,56,46,42,25,20,18,45,36,26,0.00,40.00,25,17,46,0.00
2013-1-23,56,46,42,46,31,20,99,59,26,0.00,40.00,9,6,29,0.44
2013-1-24,49,47,43,45,43,42,100,87,77,0.00,40.00,16,12,27,0.40
2013-1-25,54,48,44,48,45,42,99,90,77,0.00,40.00,12,7,20,0.06
2013-1-26,49,45,37,48,44,34,100,95,85,0.00,40.00,8,4,79,0.08
2013-1-27,47,38,34,36,33,25,99,85,48,0.00,40.00,12,4,17,0.06
2013-1-28,50,39,33,34,29,25,77,66,48,0.00,40.00,13,7,22,0.00
2013-1-29,55,42,33,38,32,30,90,70,45,0.00,40.00,13,6,60,0.00
2013-1-30,62,50,45,43,33,26,70,52,26,0.00,40.00,23,15,38,0.00
2013-1-31,60,49,43,43,36,28,80,60,43,0.00,40.00,24,10,78,0.00
2013-2-1,63,49,42,40,28,25,59,45,27,0.00,40.00,19,12,92,0.00
2013-2-2,59,50,45,35,30,26,60,46,36,0.00,40.00,21,13,32,0.00
2013-2-3,61,50,42,44,33,26,68,54,37,0.00,40.00,18,12,33,0.00
2013-2-4,61,50,44,43,30,22,72,48,33,0.00,40.00,23,12,36,0.00
2013-2-5,53,44,38,43,35,27,98,72,56,0.00,40.00,11,5,161,0.00
2013-2-6,55,43,36,41,33,29,98,67,43,0.00,40.00,19,8,26,0.00
2013-2-7,43,38,34,42,34,32,97,86,70,0.00,40.00,8,5,19,0.67
2013-2-8,45,38,33,33,23,14,98,61,30,0.00,40.00,17,9,30,0.07
2013-2-9,51,41,36,25,18,13,54,39,26,0.00,40.00,19,11,39,0.00
2013-2-10,55,45,38,27,21,13,53,39,23,0.00,40.00,20,11,29,0.00
2013-2-11,58,46,39,31,22,16,53,39,24,0.00,40.00,21,9,34,0.00
2013-2-12,55,45,40,35,28,19,72,51,40,0.00,40.00,18,9,102,0.00
2013-2-13,64,51,44,42,31,25,62,46,29,0.00,40.00,22,13,49,0.00
2013-2-14,65,56,49,31,28,26,49,36,24,0.00,40.00,33,19,64,0.00
2013-2-15,65,55,49,40,31,25,59,41,26,0.00,40.00,30,16,56,0.00
2013-2-16,64,51,44,39,30,27,59,46,30,0.00,40.00,18,10,156,0.00
2013-2-17,61,48,40,38,32,28,64,53,34,0.00,40.00,15,8,25,0.00
2013-2-18,56,44,39,41,32,25,92,65,42,0.00,40.00,10,6,17,0.00
2013-2-19,39,34,31,37,32,30,97,91,81,0.00,40.00,7,4,17,0.17
2013-2-20,50,41,31,30,24,21,96,55,32,0.00,40.00,16,8,29,0.36
2013-2-21,53,42,33,28,24,20,70,51,35,0.00,40.00,23,9,32,0.01
2013-2-22,58,46,38,35,28,23,58,50,37,0.00,40.00,17,8,27,0.00
2013-2-23,51,43,36,35,22,9,91,48,21,0.00,40.00,19,8,27,0.00
2013-2-24,58,45,38,23,15,9,38,31,16,0.00,40.00,20,12,123,0.00
2013-2-25,57,45,36,30,22,14,50,39,26,0.00,40.00,14,6,26,0.00
2013-2-26,60,46,38,22,13,8,52,29,14,0.00,40.00,26,16,42,0.00
2013-2-27,62,49,40,28,19,11,42,31,21,0.00,40.00,21,11,34,0.00
2013-2-28,63,51,42,39,32,26,65,48,35,0.00,40.00,10,6,17,0.00
2013-3-1,68,56,48,45,40,35,67,56,40,0.00,40.00,21,11,32,0.00
2013-3-2,67,55,48,46,40,35,70,57,39,0.00,40.00,13,6,18,0.00
2013-3-3,59,50,44,47,44,41,99,84,63,0.00,40.00,11,6,136,0.18
2013-3-4,61,49,42,48,42,36,99,76,59,0.00,40.00,14,7,21,0.06
2013-3-5,53,47,40,41,36,29,95,66,42,0.00,40.00,8,5,107,0.11
2013-3-6,44,40,36,39,37,34,99,90,76,0.00,40.00,8,5,28,0.81
2013-3-7,52,42,35,37,32,29,95,70,52,0.00,40.00,15,6,22,0.05
2013-3-8,59,46,38,33,28,25,81,52,28,0.00,40.00,23,14,38,0.01
2013-3-9,64,50,41,37,26,15,81,43,18,0.00,40.00,18,8,30,0.01
2013-3-10,63,54,46,41,28,16,59,38,19,0.00,40.00,23,12,41,0.00
2013-3-11,68,57,48,42,34,22,69,42,25,0.00,40.00,22,8,36,0.00
2013-3-12,70,58,49,48,41,34,69,53,40,0.00,40.00,17,8,28,0.00
2013-3-13,74,60,50,47,40,37,66,50,32,0.00,40.00,13,8,137,0.00
2013-3-14,73,58,49,47,39,32,63,49,34,0.00,40.00,12,7,18,0.00
2013-3-15,71,57,50,46,38,32,61,49,35,0.00,40.00,13,8,24,0.00
2013-3-16,69,57,49,42,34,28,61,43,26,0.00,40.00,21,10,31,0.00
2013-3-17,66,52,40,36,30,21,69,47,25,0.00,40.00,10,6,89,0.00
2013-3-18,67,52,43,33,29,25,52,41,24,0.00,40.00,12,6,21,0.00
2013-3-19,64,53,47,48,40,33,98,66,39,0.00,40.00,12,5,19,0.41
2013-3-20,49,47,45,49,47,45,100,99,96,0.00,40.00,5,4,18,2.64
2013-3-21,60,50,44,48,42,17,100,78,28,0.00,40.00,20,4,32,0.12
2013-3-22,57,48,41,25,15,3,44,27,18,0.00,40.00,28,15,45,0.07
2013-3-23,63,50,41,29,21,15,49,32,21,0.00,40.00,26,14,42,0.00
2013-3-24,68,53,44,38,31,27,57,44,29,0.00,40.00,19,8,29,0.00
2013-3-25,64,53,45,43,37,33,64,55,39,0.00,40.00,12,7,197,0.00
2013-3-26,63,53,47,46,38,32,74,58,44,0.00,40.00,9,4,23,0.00
2013-3-27,64,53,47,46,44,42,85,72,49,0.00,40.00,7,6,12,0.00
2013-3-28,56,53,49,47,45,43,90,74,61,0.00,40.00,10,4,99,0.00
2013-3-29,72,57,47,48,41,38,79,58,38,0.00,40.00,19,10,34,0.01
2013-3-30,69,59,52,51,42,-100,95,59,43,0.00,40.00,19,10,167,0.06
2013-3-31,59,51,46,51,47,44,99,88,60,0.00,40.00,7,4,16,0.98
2013-4-1,57,50,45,49,46,43,99,87,70,0.00,40.00,7,4,12,0.03
2013-4-2,67,54,44,48,44,40,97,71,46,0.00,40.00,16,7,52,0.01
2013-4-3,69,57,47,53,47,41,85,71,53,0.00,40.00,16,6,27,0.00
2013-4-4,56,51,45,51,48,43,99,91,68,0.00,40.00,8,4,18,0.66
2013-4-5,61,52,47,50,47,45,99,83,58,0.00,40.00,4,3,12,0.01
2013-4-6,59,52,48,49,47,43,89,83,64,0.00,40.00,5,3,149,0.01
2013-4-7,57,51,43,49,46,42,98,83,68,0.00,40.00,6,4,18,0.29
2013-4-8,57,47,38,42,29,21,98,57,24,0.00,40.00,27,10,42,0.62
2013-4-9,68,55,46,35,26,20,44,34,18,0.00,40.00,19,12,33,0.01
2013-4-10,77,69,56,48,40,28,44,35,25,0.00,40.00,19,7,35,0.00
2013-4-11,71,62,55,43,35,21,62,37,26,0.00,40.00,30,10,42,0.00
2013-4-12,74,62,54,44,32,24,46,33,27,0.00,40.00,26,13,41,0.00
2013-4-13,70,59,50,42,35,26,61,41,27,0.00,40.00,9,5,12,0.00
2013-4-14,64,54,45,39,33,30,60,47,29,0.00,40.00,9,6,16,0.00
2013-4-15,55,46,39,37,31,24,83,59,30,0.00,40.00,14,6,32,0.00
2013-4-16,55,46,41,25,20,14,48,37,21,0.00,40.00,25,14,46,0.00
2013-4-17,62,50,42,24,18,14,41,29,16,0.00,40.00,27,11,67,0.00
2013-4-18,70,56,47,35,25,16,47,30,21,0.00,40.00,18,10,30,0.00
2013-4-19,73,60,51,44,37,32,53,43,32,0.00,40.00,17,8,25,0.00
2013-4-20,75,62,53,40,33,28,53,34,24,0.00,40.00,24,13,43,0.00
2013-4-21,80,66,56,41,33,27,40,30,22,0.00,40.00,19,10,32,0.00
2013-4-22,80,68,59,37,30,19,40,26,13,0.00,40.00,31,16,51,0.00
2013-4-23,78,63,55,32,20,10,35,19,15,0.00,40.00,32,18,51,0.00
2013-4-24,76,67,58,32,18,13,35,16,11,0.00,40.00,30,17,48,0.00
2013-4-25,73,64,55,48,34,11,62,36,13,0.00,40.00,20,8,94,0.00
2013-4-26,78,64,53,53,45,36,62,51,39,0.00,40.00,15,7,131,0.00
2013-4-27,82,68,58,55,45,37,64,45,33,0.00,40.00,15,7,127,0.00
2013-4-28,83,69,59,54,45,40,57,43,26,0.00,40.00,18,9,33,0.00
2013-4-29,83,71,63,46,39,31,44,31,27,0.00,40.00,22,12,38,0.00
2013-4-30,79,70,59,40,19,6,41,16,10,0.00,40.00,34,18,54,0.00
2013-5-1,75,66,56,23,11,4,14,12,9,0.00,40.00,32,21,57,0.00
2013-5-2,84,70,59,34,20,3,32,16,9,0.00,40.00,29,14,145,0.00
2013-5-3,83,70,59,47,35,23,37,29,15,0.00,40.00,23,11,37,0.00
2013-5-4,77,70,64,34,27,20,30,20,14,0.00,40.00,25,18,43,0.00
2013-5-5,70,61,55,46,39,27,67,46,22,0.00,40.00,15,5,32,0.00
2013-5-6,57,53,49,51,47,42,98,80,64,0.00,40.00,6,2,10,0.14
2013-5-7,58,52,46,51,47,42,87,83,74,0.00,40.00,8,4,12,0.07
2013-5-8,63,57,53,54,51,48,95,81,71,0.00,40.00,3,2,79,0.03
2013-5-9,77,63,52,58,54,49,91,73,52,0.00,40.00,12,4,74,0.03
2013-5-10,83,68,58,62,53,-100,84,64,48,0.00,40.00,14,5,22,0.00
2013-5-11,85,72,64,60,53,-100,74,53,40,0.00,40.00,19,7,27,0.00
2013-5-12,87,74,63,55,46,36,61,40,19,0.00,40.00,10,6,16,0.00
2013-5-13,86,71,59,48,40,28,46,35,18,0.00,40.00,10,6,32,0.00
2013-5-14,86,72,63,52,44,35,54,38,29,0.00,40.00,21,9,32,0.00
2013-5-15,76,66,60,52,49,46,67,55,38,0.00,40.00,9,5,18,0.00
2013-5-16,66,53,53,53,34,-100,96,74,53,0.00,40.00,6,3,126,0.02
2013-5-17,69,58,47,49,40,-100,90,63,36,0.00,40.00,6,3,17,0.01
2013-5-18,74,61,49,47,42,35,70,51,34,0.00,40.00,16,7,23,0.00
2013-5-19,80,66,55,43,36,27,54,36,22,0.00,40.00,22,12,40,0.00
2013-5-20,86,70,60,41,34,27,41,27,19,0.00,40.00,29,13,41,0.00
2013-5-21,74,65,51,45,36,21,49,35,20,0.00,40.00,8,4,14,0.00
2013-5-22,66,52,39,26,22,14,58,32,18,0.00,40.00,18,6,29,0.00
2013-5-23,67,54,42,36,28,22,49,37,25,0.00,40.00,7,5,14,0.00
2013-5-24,72,58,45,40,33,29,55,40,27,0.00,40.00,13,6,23,0.00
2013-5-25,72,60,49,42,35,32,54,40,25,0.00,40.00,9,5,16,0.00
2013-5-26,71,60,50,48,41,35,62,50,30,0.00,40.00,6,4,82,0.00
2013-5-27,61,53,49,53,45,39,98,76,56,0.00,40.00,7,5,12,0.35
2013-5-28,70,57,51,54,52,47,100,83,51,0.00,40.00,6,3,131,0.39
2013-5-29,73,62,54,52,47,37,82,63,28,0.00,40.00,8,3,147,0.01
2013-5-30,79,65,51,48,39,31,68,43,18,0.00,40.00,12,6,21,0.00
2013-5-31,88,71,56,43,34,27,39,27,16,0.00,40.00,25,13,48,0.00
2013-6-1,94,79,68,44,37,29,37,22,17,0.00,40.00,24,12,43,0.00
2013-6-2,90,76,64,50,45,40,43,35,21,0.00,40.00,16,8,28,0.00
2013-6-3,94,80,70,48,40,31,43,25,17,0.00,40.00,28,12,48,0.00
2013-6-4,86,77,67,57,52,36,63,43,29,0.00,40.00,15,5,27,0.00
2013-6-5,89,75,64,59,56,48,68,53,36,0.00,40.00,9,5,16,0.00
2013-6-6,94,78,64,61,57,48,74,52,33,0.00,40.00,11,5,21,0.00
2013-6-7,101,83,70,61,50,32,62,34,13,0.00,40.00,20,9,34,0.00
2013-6-8,104,88,77,55,50,46,35,27,18,0.00,40.00,26,14,52,0.00
2013-6-9,89,82,64,60,51,41,68,37,23,0.00,40.00,17,8,27,0.00
2013-6-10,65,60,55,56,53,51,98,81,61,0.00,40.00,5,3,15,0.12
2013-6-11,79,65,52,55,50,45,93,62,33,0.00,40.00,8,4,13,0.06
2013-6-12,81,68,56,52,44,32,64,45,20,0.00,40.00,9,5,15,0.00
2013-6-13,79,66,54,46,38,32,59,37,21,0.00,40.00,12,4,93,0.00
2013-6-14,85,70,60,39,32,25,35,26,17,0.00,40.00,28,15,55,0.00
2013-6-15,84,71,59,44,36,27,42,29,13,0.00,40.00,12,6,150,0.00
2013-6-16,86,71,59,45,38,32,39,31,19,0.00,40.00,12,6,22,0.00
2013-6-17,82,70,58,50,43,40,58,40,23,0.00,40.00,11,6,20,0.00
2013-6-18,72,64,54,52,46,38,76,54,32,0.00,40.00,7,4,45,0.00
2013-6-19,72,59,48,47,42,37,88,57,30,0.00,40.00,7,3,144,0.00
2013-6-20,79,60,52,42,38,34,57,45,26,0.00,40.00,18,9,26,0.00
2013-6-21,84,82,81,43,40,35,26,22,19,0.00,40.00,5,4,12,0.00
2013-6-22,88,78,63,41,39,32,34,25,18,0.00,40.00,20,6,35,0.00
2013-6-23,72,65,60,57,47,37,86,54,34,0.00,40.00,10,5,16,0.00
2013-6-24,60,57,54,57,53,47,99,87,68,0.00,40.00,7,4,13,0.55
2013-6-25,62,58,54,62,58,54,100,99,92,0.00,40.00,5,4,183,2.69
2013-6-26,81,70,62,64,61,58,92,74,52,0.00,40.00,6,3,13,0.01
2013-6-27,90,74,61,64,59,56,90,63,37,0.00,40.00,11,6,21,0.00
2013-6-28,96,82,69,62,56,50,64,42,30,0.00,40.00,22,8,36,0.00
2013-6-29,99,83,70,60,55,50,62,42,21,0.00,40.00,18,8,32,0.00
2013-6-30,97,84,73,60,52,46,44,34,23,0.00,40.00,22,9,37,0.00
2013-7-1,98,84,73,62,55,48,47,38,22,0.00,40.00,16,8,26,0.00
2013-7-2,101,89,79,66,57,50,46,35,29,0.00,40.00,23,10,47,0.00
2013-7-3,102,88,78,66,59,55,47,37,27,0.00,40.00,41,13,60,0.00
2013-7-4,101,90,79,57,52,48,42,29,18,0.00,40.00,21,9,80,0.00
2013-7-5,90,79,71,59,52,47,60,40,23,0.00,40.00,11,5,16,0.00
2013-7-6,88,74,64,55,45,37,47,36,26,0.00,40.00,11,6,17,0.00
2013-7-7,91,77,64,51,44,35,48,32,20,0.00,40.00,13,7,26,0.00
2013-7-8,91,72,66,51,39,-100,41,32,15,0.00,40.00,16,8,27,0.00
2013-7-9,93,78,66,49,40,36,36,27,14,0.00,40.00,12,7,20,0.00
2013-7-10,93,80,71,48,37,-100,31,23,15,0.00,40.00,18,7,31,0.00
2013-7-11,89,76,64,48,38,28,36,27,13,0.00,40.00,10,6,15,0.00
2013-7-12,88,73,62,46,39,33,40,30,19,0.00,40.00,10,6,71,0.00
2013-7-13,90,75,62,47,38,29,38,28,12,0.00,40.00,12,7,19,0.00
2013-7-14,93,78,65,47,39,31,39,26,19,0.00,40.00,17,8,27,0.00
2013-7-15,90,76,67,54,46,39,42,35,26,0.00,40.00,15,7,24,0.00
2013-7-16,84,77,66,54,47,40,48,35,22,0.00,40.00,7,3,9,0.00
2013-7-17,90,75,61,53,42,32,44,31,18,0.00,40.00,12,6,20,0.00
2013-7-18,92,80,65,51,44,38,41,29,18,0.00,40.00,18,7,29,0.00
2013-7-19,96,81,67,56,50,45,49,36,22,0.00,40.00,13,5,27,0.00
2013-7-20,100,83,70,61,54,-100,54,39,26,0.00,40.00,12,6,20,0.00
2013-7-21,99,84,72,62,58,51,60,43,27,0.00,40.00,15,5,21,0.00
2013-7-22,92,80,71,61,53,44,61,42,19,0.00,40.00,8,4,12,0.00
2013-7-23,91,78,67,58,51,45,54,40,27,0.00,40.00,14,5,22,0.00
2013-7-24,94,81,69,58,55,54,64,43,27,0.00,40.00,7,4,11,0.00
2013-7-25,97,83,71,60,57,54,57,43,27,0.00,40.00,16,7,26,0.00
2013-7-26,97,84,75,60,57,54,51,41,27,0.00,40.00,12,6,20,0.00
2013-7-27,95,82,73,57,53,47,51,38,26,0.00,40.00,14,7,25,0.00
2013-7-28,93,80,70,59,53,48,53,41,22,0.00,40.00,9,5,14,0.00
2013-7-29,87,74,67,55,48,42,53,41,21,0.00,40.00,13,6,19,0.00
2013-7-30,90,77,63,48,43,33,45,31,20,0.00,40.00,10,5,16,0.00
2013-7-31,89,76,66,52,41,32,44,29,15,0.00,40.00,10,5,16,0.00
2013-8-1,84,73,60,48,42,35,43,34,23,0.00,40.00,7,4,13,0.00
2013-8-2,87,74,62,48,42,37,45,32,21,0.00,40.00,18,7,27,0.00
2013-8-3,89,75,63,47,41,37,46,32,17,0.00,40.00,13,6,21,0.00
2013-8-4,90,76,63,51,41,36,39,30,19,0.00,40.00,12,6,21,0.00
2013-8-5,91,76,64,48,44,38,44,33,21,0.00,40.00,12,6,22,0.00
2013-8-6,90,75,63,49,42,35,46,33,15,0.00,40.00,14,6,22,0.00
2013-8-7,82,70,60,55,50,44,70,49,28,0.00,40.00,6,3,10,0.00
2013-8-8,82,68,57,52,47,42,70,49,29,0.00,40.00,8,5,14,0.00
2013-8-9,83,69,58,50,45,40,61,44,25,0.00,40.00,12,5,19,0.00
2013-8-10,84,71,57,51,46,40,62,43,29,0.00,40.00,10,5,16,0.00
2013-8-11,87,73,61,52,45,39,54,38,23,0.00,40.00,17,6,27,0.00
2013-8-12,88,73,62,50,43,38,46,35,23,0.00,40.00,14,7,25,0.00
2013-8-13,93,76,64,45,39,-100,46,30,16,0.00,40.00,17,7,29,0.00
2013-8-14,94,77,65,46,37,-100,36,26,13,0.00,40.00,16,7,25,0.00
2013-8-15,92,72,66,47,29,-100,31,24,16,0.00,40.00,13,7,25,0.00
2013-8-16,93,76,65,46,38,-100,37,28,18,0.00,40.00,11,6,19,0.00
2013-8-17,93,78,67,50,42,-100,42,29,20,0.00,40.00,15,7,26,0.00
2013-8-18,98,84,71,58,53,45,47,36,25,0.00,40.00,13,5,18,0.00
2013-8-19,93,80,75,58,48,-100,48,37,28,0.00,40.00,12,7,20,0.00
2013-8-20,94,83,75,61,56,51,54,41,29,0.00,40.00,19,8,33,0.00
2013-8-21,89,80,73,60,56,51,56,44,31,0.00,40.00,9,5,14,0.00
2013-8-22,90,78,67,55,48,38,57,38,17,0.00,40.00,13,6,21,0.00
2013-8-23,87,74,64,48,43,39,44,35,21,0.00,40.00,14,6,25,0.00
2013-8-24,85,72,63,49,42,-100,47,36,25,0.00,40.00,10,6,16,0.00
2013-8-25,82,70,61,52,48,45,56,46,30,0.00,40.00,7,4,14,0.00
2013-8-26,84,70,58,53,48,43,68,47,26,0.00,40.00,8,4,11,0.00
2013-8-27,87,68,61,47,44,41,53,44,25,0.00,40.00,10,7,17,0.00
2013-8-28,88,81,69,50,44,38,39,27,19,0.00,40.00,7,4,13,0.00
2013-8-29,89,75,62,47,41,36,46,32,18,0.00,40.00,9,5,14,0.00
2013-8-30,93,76,63,46,40,33,39,28,17,0.00,40.00,12,6,23,0.00
2013-8-31,93,77,65,47,39,-100,36,27,14,0.00,40.00,12,6,19,0.00
2013-9-1,86,74,65,62,49,43,89,45,25,0.00,40.00,7,4,12,0.16
2013-9-2,78,70,65,63,58,49,89,68,40,0.00,40.00,9,5,17,0.18
2013-9-3,83,72,64,59,54,47,73,55,39,0.00,40.00,6,3,10,0.01
2013-9-4,84,71,60,57,53,45,79,55,32,0.00,40.00,8,4,12,0.00
2013-9-5,81,69,58,52,47,38,76,48,25,0.00,40.00,8,4,13,0.00
2013-9-6,89,72,60,39,37,35,41,30,15,0.00,40.00,20,10,32,0.00
2013-9-7,91,76,66,43,38,-100,37,27,17,0.00,40.00,15,8,27,0.00
2013-9-8,97,78,67,44,41,37,35,27,15,0.00,40.00,19,9,34,0.00
2013-9-9,99,83,71,43,41,37,34,24,14,0.00,40.00,22,10,34,0.00
2013-9-10,95,83,72,55,44,35,53,28,17,0.00,40.00,19,9,37,0.00
2013-9-11,86,73,66,57,52,43,65,48,33,0.00,40.00,12,5,19,0.00
2013-9-12,85,73,62,56,53,50,71,53,32,0.00,40.00,8,4,12,0.00
2013-9-13,88,76,67,58,56,54,63,50,36,0.00,40.00,13,6,21,0.00
2013-9-14,90,76,68,58,53,-100,62,48,32,0.00,40.00,15,7,25,0.00
2013-9-15,85,73,64,50,42,31,49,35,15,0.00,40.00,10,5,15,0.00
2013-9-16,84,69,58,46,40,34,47,35,20,0.00,40.00,11,5,18,0.00
2013-9-17,73,66,59,52,49,44,71,54,44,0.00,40.00,8,4,13,0.00
2013-9-18,72,62,58,49,41,35,70,48,26,0.00,40.00,19,13,31,0.00
2013-9-19,86,74,64,39,34,28,35,24,16,0.00,40.00,23,11,37,0.00
2013-9-20,82,68,58,55,38,30,85,36,16,0.00,40.00,10,6,16,0.00
2013-9-21,60,53,48,56,51,-100,100,94,85,0.00,40.00,6,4,16,1.11
2013-9-22,67,54,45,52,48,45,100,82,56,0.00,40.00,7,5,11,0.16
2013-9-23,78,63,52,54,48,46,86,62,40,0.00,40.00,20,8,29,0.01
2013-9-24,71,62,52,53,48,41,93,62,46,0.00,40.00,12,5,21,0.15
2013-9-25,64,53,45,50,41,29,100,68,28,0.00,40.00,13,5,29,0.15
2013-9-26,68,56,49,36,32,27,51,41,30,0.00,40.00,21,11,33,0.00
2013-9-27,73,59,50,37,32,29,49,38,24,0.00,40.00,21,12,36,0.00
2013-9-28,75,61,50,41,34,-100,59,40,20,0.00,40.00,9,6,15,0.00
2013-9-29,65,60,57,55,46,33,88,62,32,0.00,40.00,6,4,15,0.00
2013-9-30,65,59,57,59,55,53,97,88,73,0.00,40.00,4,3,17,0.03
2013-10-1,72,62,55,50,49,47,75,63,44,0.00,40.00,9,6,13,0.00
2013-10-2,73,60,52,47,39,29,73,47,25,0.00,40.00,16,8,29,0.00
2013-10-3,63,57,49,33,24,16,48,29,16,0.00,40.00,28,17,45,0.00
2013-10-4,71,61,52,24,21,16,31,22,15,0.00,40.00,28,17,48,0.00
2013-10-5,78,64,57,33,25,18,39,23,17,0.00,40.00,28,16,45,0.00
2013-10-6,79,62,55,33,28,25,39,28,16,0.00,40.00,17,9,29,0.00
2013-10-7,79,62,52,29,25,22,33,26,13,0.00,40.00,12,7,20,0.00
2013-10-8,73,60,54,34,29,25,40,32,22,0.00,40.00,20,10,32,0.00
2013-10-9,65,57,51,35,32,28,54,39,28,0.00,40.00,31,15,47,0.00
2013-10-10,65,57,49,43,39,32,70,52,41,0.00,40.00,18,6,30,0.00
2013-10-11,70,56,47,42,38,36,72,54,32,0.00,40.00,11,6,20,0.00
2013-10-12,69,55,47,47,37,-100,91,53,33,0.00,40.00,18,6,24,0.05
2013-10-13,63,55,48,45,36,34,87,51,37,0.00,40.00,24,17,36,0.05
2013-10-14,72,60,51,34,32,23,49,37,22,0.00,40.00,26,17,41,0.00
2013-10-15,70,62,53,28,25,19,37,26,18,0.00,40.00,30,19,47,0.00
2013-10-16,75,60,50,34,27,19,43,29,20,0.00,40.00,24,11,38,0.00
2013-10-17,76,61,51,34,31,28,43,34,20,0.00,40.00,25,11,36,0.00
2013-10-18,78,66,58,37,31,26,43,28,19,0.00,40.00,28,13,42,0.00
2013-10-19,81,64,56,36,31,-100,43,31,19,0.00,40.00,21,10,32,0.00
2013-10-20,81,66,57,38,34,31,42,32,20,0.00,40.00,23,11,37,0.00
2013-10-21,80,70,62,38,35,25,39,28,19,0.00,40.00,22,6,37,0.00
2013-10-22,83,66,57,34,29,21,35,25,16,0.00,40.00,17,9,28,0.00
2013-10-23,82,65,57,30,24,19,27,22,14,0.00,40.00,24,12,37,0.00
2013-10-24,78,64,56,36,30,26,32,28,19,0.00,40.00,17,9,29,0.00
2013-10-25,78,62,53,40,31,23,40,31,23,0.00,40.00,17,9,28,0.00
2013-10-26,78,63,56,40,31,-100,39,31,20,0.00,40.00,20,10,34,0.00
2013-10-27,71,57,42,43,33,26,88,42,25,0.00,40.00,20,8,33,0.08
2013-10-28,48,42,39,44,39,-100,100,91,79,0.00,40.00,14,5,17,0.13
2013-10-29,49,45,42,46,44,41,100,96,89,0.00,40.00,10,4,16,0.22
2013-10-30,59,48,41,42,40,38,99,76,52,0.00,40.00,13,8,18,0.01
2013-10-31,66,57,48,43,38,33,77,51,33,0.00,40.00,27,12,41,0.00
2013-11-1,71,61,52,41,38,35,58,43,32,0.00,40.00,19,7,27,0.00
2013-11-2,69,54,45,40,35,-100,65,50,32,0.00,40.00,11,6,16,0.00
2013-11-3,55,50,45,36,20,16,59,31,21,0.00,40.00,27,20,43,0.00
2013-11-4,58,50,45,22,20,16,39,31,20,0.00,40.00,27,18,43,0.00
2013-11-5,68,55,48,33,26,20,48,33,22,0.00,40.00,24,11,38,0.00
2013-11-6,65,56,49,39,34,31,57,45,34,0.00,40.00,19,9,32,0.00
2013-11-7,70,58,51,39,34,28,58,42,23,0.00,40.00,9,5,15,0.00
2013-11-8,69,55,47,38,33,28,61,44,27,0.00,40.00,11,6,15,0.00
2013-11-9,70,56,49,41,37,-100,63,51,34,0.00,40.00,17,9,29,0.00
2013-11-10,71,57,50,37,33,28,56,42,25,0.00,40.00,11,7,19,0.00
2013-11-11,71,57,50,30,24,20,39,29,16,0.00,40.00,12,8,22,0.00
2013-11-12,64,58,53,37,31,26,47,35,30,0.00,40.00,11,7,16,0.00
2013-11-13,75,62,54,36,34,31,48,36,24,0.00,40.00,23,13,35,0.00
2013-11-14,68,57,50,40,35,32,64,45,32,0.00,40.00,17,7,31,0.00
2013-11-15,61,52,46,38,25,17,64,37,19,0.00,40.00,27,13,39,0.00
2013-11-16,59,50,44,34,28,-100,62,44,36,0.00,40.00,8,4,11,0.00
2013-11-17,60,48,41,37,33,30,68,57,39,0.00,40.00,12,6,19,0.00
2013-11-18,57,48,40,41,36,31,82,64,47,0.00,40.00,9,5,14,0.00
2013-11-19,48,46,44,48,46,41,100,98,82,0.00,40.00,7,5,12,1.72
2013-11-20,49,48,45,49,48,40,100,99,81,0.00,40.00,16,3,26,1.94
2013-11-21,50,46,43,40,23,6,81,43,20,0.00,40.00,25,17,46,0.19
2013-11-22,60,54,45,7,3,-2,20,13,9,0.00,40.00,17,12,35,0.00
2013-11-23,61,52,49,15,6,-100,25,16,12,0.00,40.00,29,14,52,0.00
2013-11-24,56,50,44,37,31,14,69,51,24,0.00,40.00,22,6,33,0.00
2013-11-25,58,50,43,37,34,27,67,54,33,0.00,40.00,8,5,14,0.00
2013-11-26,56,47,43,38,30,25,60,52,46,0.00,40.00,16,9,27,0.00
2013-11-27,57,50,45,34,31,28,54,48,39,0.00,40.00,14,8,24,0.00
2013-11-28,62,53,47,35,32,29,50,44,33,0.00,40.00,22,13,34,0.00
2013-11-29,62,52,47,39,33,30,57,48,33,0.00,40.00,21,13,33,0.00
2013-11-30,61,52,47,39,32,-100,60,49,39,0.00,40.00,18,11,28,0.00
2013-12-1,61,53,48,38,35,33,61,51,38,0.00,40.00,24,13,38,0.00
2013-12-2,57,50,42,43,38,33,83,66,54,0.00,40.00,9,5,15,0.01
2013-12-3,49,43,36,45,29,7,100,65,28,0.00,40.00,19,8,31,0.01
2013-12-4,42,34,28,12,8,5,43,34,26,0.00,40.00,25,13,38,0.00
2013-12-5,41,31,26,13,10,6,53,41,28,0.00,40.00,22,12,35,0.00
2013-12-6,37,29,24,30,18,10,99,65,43,0.00,40.00,8,5,14,0.00
2013-12-7,36,29,25,32,26,-100,99,94,79,0.00,40.00,11,3,18,0.23
2013-12-8,30,23,20,19,12,10,79,64,43,0.00,40.00,22,18,34,0.14
2013-12-9,38,31,28,15,4,0,39,31,26,0.00,40.00,24,19,51,0.01
2013-12-10,45,34,30,20,12,11,45,41,32,0.00,40.00,26,22,41,0.00
2013-12-11,47,42,41,19,18,17,41,37,30,0.00,40.00,28,25,44,0.00
2013-12-12,48,41,36,23,19,17,52,42,33,0.00,40.00,23,14,35,0.00
2013-12-13,56,44,36,27,22,18,53,41,28,0.00,40.00,22,15,35,0.00
2013-12-14,54,46,45,26,21,-100,43,39,31,0.00,40.00,28,25,48,0.00
2013-12-15,55,47,44,24,23,22,42,39,29,0.00,40.00,22,20,40,0.00
2013-12-16,56,50,49,23,21,20,33,31,26,0.00,40.00,30,28,46,0.00
2013-12-17,57,52,48,27,24,22,42,33,28,0.00,40.00,24,19,43,0.00
2013-12-18,52,47,44,33,27,25,57,46,40,0.00,40.00,15,10,23,0.00
2013-12-19,49,44,39,31,18,7,69,38,24,0.00,40.00,32,18,48,0.00
2013-12-20,55,41,38,20,9,0,39,27,15,0.00,40.00,23,15,44,0.00
2013-12-21,58,48,39,37,26,-100,59,45,38,0.00,40.00,20,7,29,0.00
2013-12-22,66,55,49,38,33,27,54,44,36,0.00,40.00,23,12,33,0.00
2013-12-23,60,51,45,38,34,31,59,52,42,0.00,40.00,21,12,36,0.00
2013-12-24,61,53,47,33,30,27,51,43,30,0.00,40.00,32,24,50,0.00
2013-12-25,60,53,49,29,28,26,43,38,27,0.00,40.00,32,24,50,0.00
2013-12-26,56,50,47,27,26,24,43,40,32,0.00,40.00,26,22,42,0.00
2013-12-27,52,47,44,27,24,22,47,42,35,0.00,40.00,20,14,35,0.00
2013-12-28,61,47,42,25,16,-100,46,31,17,0.00,40.00,30,18,44,0.00
2013-12-29,54,51,49,19,13,11,29,22,19,0.00,40.00,30,27,51,0.00
2013-12-30,54,48,44,26,22,19,42,36,29,0.00,40.00,19,13,33,0.00
2013-12-31,62,50,44,30,24,21,41,36,27,0.00,40.00,12,8,23,0.00
2014-1-1,61,54,49,35,27,18,50,36,26,0.00,40.00,26,12,39,0.00
2014-1-2,55,50,46,30,26,23,40,38,34,0.00,40.00,21,16,36,0.00